START_TIME,STEP,MOV.,M34,t_acc.,L5,t_acc.,L18,t_acc.,L14,t_acc.
1981-08-25 12:00:25.670 ,2,0,0.,12.0,0.,12.0,0.,12.0,0.,12.0
1981-08-25 12:00:37.670 ,2,0,0.,12.0,0.,12.0,0.,12.0,0.,12.0
1981-08-25 12:00:49.670 ,3,1,0.,12.0,0.,12.0,0.,12.0,0.,12.0
1981-08-25 12:01:01.670 ,3,1,0.,12.0,0.,12.0,0.,12.0,0.,12.0
1981-08-25 12:01:13.670 ,3,0,1.,12.0,0.,12.0,0.,12.0,0.,12.0
1981-08-25 12:01:25.670 ,3,0,0.,12.0,0.,12.0,0.,12.0,0.,12.0
1981-08-25 12:01:37.670 ,4,1,0.,12.0,0.,12.0,0.,12.0,0.,12.0
1981-08-25 12:01:49.670 ,4,1,0.,12.0,0.,12.0,0.,12.0,0.,12.0
1981-08-25 12:02:01.670 ,4,0,1.,12.0,0.,12.0,0.,12.0,0.,12.0
1981-08-25 12:02:13.670 ,4,0,0.,12.0,0.,12.0,0.,12.0,0.,12.0
1981-08-25 12:02:25.670 ,5,1,0.,12.0,0.,12.0,0.,12.0,0.,12.0
1981-08-25 12:02:37.670 ,5,1,0.,12.0,0.,12.0,0.,12.0,0.,12.0
1981-08-25 12:02:49.670 ,5,0,0.,12.0,0.,12.0,0.,12.0,0.,12.0
1981-08-25 12:03:01.670 ,5,0,0.,12.0,0.,12.0,0.,12.0,0.,12.0
1981-08-25 12:03:13.670 ,6,1,1.,12.0,0.,12.0,0.,12.0,0.,12.0
1981-08-25 12:03:25.670 ,6,1,0.,12.0,0.,12.0,0.,12.0,0.,12.0
1981-08-25 12:03:37.670 ,6,0,0.,12.0,0.,12.0,0.,12.0,0.,12.0
1981-08-25 12:03:49.670 ,6,0,0.,12.0,0.,12.0,0.,12.0,0.,12.0
1981-08-25 12:04:01.670 ,7,1,0.,12.0,0.,12.0,0.,12.0,0.,12.0
1981-08-25 12:04:13.670 ,7,1,0.,12.0,0.,12.0,0.,12.0,0.,12.0
1981-08-25 12:04:25.670 ,7,0,0.,12.0,0.,12.0,0.,12.0,0.,12.0
1981-08-25 12:04:37.670 ,7,0,0.,12.0,0.,12.0,0.,12.0,0.,12.0
1981-08-25 12:04:49.670 ,7,1,0.,12.0,0.,12.0,0.,12.0,0.,12.0
1981-08-25 12:05:01.670 ,7,1,0.,12.0,0.,12.0,0.,12.0,0.,12.0
1981-08-25 12:05:13.670 ,7,0,0.,12.0,0.,12.0,0.,12.0,0.,12.0
1981-08-25 12:05:25.670 ,7,0,0.,12.0,0.,12.0,0.,12.0,0.,12.0
1981-08-25 12:05:37.670 ,6,1,0.,12.0,0.,12.0,0.,12.0,0.,12.0
1981-08-25 12:05:49.670 ,6,1,0.,12.0,0.,12.0,0.,12.0,0.,12.0
1981-08-25 12:06:01.670 ,6,0,0.,12.0,0.,12.0,0.,12.0,0.,12.0
1981-08-25 12:06:13.670 ,6,0,0.,12.0,0.,12.0,0.,12.0,0.,12.0
1981-08-25 12:06:25.670 ,5,1,0.,12.0,0.,12.0,0.,12.0,0.,12.0
1981-08-25 12:06:37.670 ,5,1,0.,12.0,0.,12.0,0.,12.0,0.,12.0
1981-08-25 12:06:49.670 ,5,0,0.,12.0,0.,12.0,0.,12.0,0.,12.0
1981-08-25 12:07:01.670 ,5,0,0.,12.0,0.,12.0,0.,12.0,0.,12.0
1981-08-25 12:07:13.670 ,4,1,0.,12.0,0.,12.0,0.,12.0,0.,12.0
1981-08-25 12:07:25.670 ,4,1,1.,12.0,0.,12.0,0.,12.0,0.,12.0
1981-08-25 12:07:37.670 ,4,0,0.,12.0,0.,12.0,0.,12.0,0.,12.0
1981-08-25 12:07:49.670 ,4,0,0.,12.0,0.,12.0,0.,12.0,0.,12.0
1981-08-25 12:08:01.670 ,3,1,0.,12.0,0.,12.0,0.,12.0,0.,12.0
1981-08-25 12:08:13.670 ,3,1,0.,12.0,0.,12.0,0.,12.0,0.,12.0
1981-08-25 12:08:25.670 ,3,0,0.,12.0,0.,12.0,0.,12.0,0.,12.0
1981-08-25 12:08:37.670 ,3,0,0.,12.0,0.,12.0,0.,12.0,0.,12.0
1981-08-25 12:08:49.670 ,2,1,0.,12.0,0.,12.0,0.,12.0,0.,12.0
1981-08-25 12:09:01.670 ,2,1,0.,12.0,0.,12.0,0.,12.0,0.,12.0
1981-08-25 12:09:13.670 ,2,0,0.,12.0,0.,12.0,0.,12.0,0.,12.0
1981-08-25 12:09:25.670 ,2,0,0.,12.0,0.,12.0,0.,12.0,0.,12.0
1981-08-25 12:09:37.670 ,1,1,0.,12.0,0.,12.0,0.,12.0,0.,12.0
1981-08-25 12:09:49.670 ,1,1,1.,12.0,0.,12.0,0.,12.0,0.,12.0
1981-08-25 12:10:01.670 ,1,0,0.,12.0,0.,12.0,0.,12.0,0.,12.0
1981-08-25 12:10:13.670 ,1,0,0.,12.0,0.,12.0,0.,12.0,0.,12.0
1981-08-25 12:10:25.670 ,0,1,0.,12.0,0.,12.0,0.,12.0,0.,12.0
1981-08-25 12:10:37.670 ,0,1,0.,12.0,0.,12.0,0.,12.0,0.,12.0
1981-08-25 12:10:49.670 ,0,0,1.,12.0,0.,12.0,0.,12.0,0.,12.0
1981-08-25 12:11:01.670 ,0,0,0.,12.0,0.,12.0,0.,12.0,0.,12.0
1981-08-25 12:11:13.670 ,0,1,0.,12.0,0.,12.0,0.,12.0,0.,12.0
1981-08-25 12:11:25.670 ,0,1,1.,12.0,0.,12.0,0.,12.0,0.,12.0
1981-08-25 12:11:37.670 ,0,0,0.,12.0,0.,12.0,0.,12.0,0.,12.0
1981-08-25 12:11:49.670 ,0,0,1.,12.0,0.,12.0,0.,12.0,0.,12.0
1981-08-25 12:12:01.670 ,1,1,1.,12.0,0.,12.0,0.,12.0,0.,12.0
1981-08-25 12:12:13.670 ,1,1,0.,12.0,0.,12.0,0.,12.0,0.,12.0
1981-08-25 12:12:25.670 ,1,0,0.,12.0,0.,12.0,0.,12.0,0.,12.0
1981-08-25 12:12:37.670 ,1,0,0.,12.0,0.,12.0,0.,12.0,0.,12.0
1981-08-25 12:12:49.670 ,2,1,0.,12.0,0.,12.0,0.,12.0,0.,12.0
1981-08-25 12:13:01.670 ,2,1,0.,12.0,0.,12.0,0.,12.0,0.,12.0
1981-08-25 12:13:13.670 ,2,0,0.,12.0,0.,12.0,0.,12.0,0.,12.0
1981-08-25 12:13:25.670 ,2,0,0.,12.0,0.,12.0,0.,12.0,0.,12.0
1981-08-25 12:13:37.670 ,3,1,0.,12.0,0.,12.0,0.,12.0,0.,12.0
1981-08-25 12:13:49.670 ,3,1,0.,12.0,0.,12.0,0.,12.0,0.,12.0
1981-08-25 12:14:01.670 ,3,0,0.,12.0,0.,12.0,0.,12.0,0.,12.0
1981-08-25 12:14:13.670 ,3,0,0.,12.0,0.,12.0,0.,12.0,0.,12.0
1981-08-25 12:14:25.670 ,4,1,0.,12.0,0.,12.0,0.,12.0,0.,12.0
1981-08-25 12:14:37.670 ,4,1,0.,12.0,0.,12.0,0.,12.0,0.,12.0
1981-08-25 12:14:49.670 ,4,0,0.,12.0,0.,12.0,0.,12.0,0.,12.0
1981-08-25 12:15:01.670 ,4,0,1.,12.0,0.,12.0,0.,12.0,0.,12.0
1981-08-25 12:15:13.670 ,5,1,0.,12.0,0.,12.0,0.,12.0,0.,12.0
1981-08-25 12:15:25.670 ,5,1,0.,12.0,0.,12.0,0.,12.0,0.,12.0
1981-08-25 12:15:37.670 ,5,0,0.,12.0,0.,12.0,0.,12.0,0.,12.0
1981-08-25 12:15:49.670 ,5,0,0.,12.0,0.,12.0,0.,12.0,0.,12.0
1981-08-25 12:16:01.670 ,6,1,0.,12.0,0.,12.0,0.,12.0,0.,12.0
1981-08-25 12:16:13.670 ,6,1,0.,12.0,0.,12.0,0.,12.0,0.,12.0
1981-08-25 12:16:25.670 ,6,0,1.,12.0,0.,12.0,0.,12.0,0.,12.0
1981-08-25 12:16:37.670 ,6,0,0.,12.0,0.,12.0,0.,12.0,0.,12.0
1981-08-25 12:16:49.670 ,7,1,0.,12.0,0.,12.0,0.,12.0,0.,12.0
1981-08-25 12:17:01.670 ,7,1,0.,12.0,0.,12.0,0.,12.0,0.,12.0
1981-08-25 12:17:13.670 ,7,0,0.,12.0,0.,12.0,0.,12.0,0.,12.0
1981-08-25 12:17:25.670 ,7,0,0.,12.0,0.,12.0,0.,12.0,0.,12.0
1981-08-25 12:17:37.670 ,7,1,0.,12.0,0.,12.0,0.,12.0,0.,12.0
1981-08-25 12:17:49.670 ,7,1,0.,12.0,0.,12.0,0.,12.0,0.,12.0
1981-08-25 12:18:01.670 ,7,0,0.,12.0,0.,12.0,0.,12.0,0.,12.0
1981-08-25 12:18:13.670 ,7,0,0.,12.0,0.,12.0,0.,12.0,0.,12.0
1981-08-25 12:18:25.670 ,6,1,0.,12.0,0.,12.0,0.,12.0,0.,12.0
1981-08-25 12:18:37.670 ,6,1,0.,12.0,0.,12.0,0.,12.0,0.,12.0
1981-08-25 12:18:49.670 ,6,0,0.,12.0,0.,12.0,0.,12.0,0.,12.0
1981-08-25 12:19:01.670 ,6,0,0.,12.0,0.,12.0,0.,12.0,0.,12.0
1981-08-25 12:19:13.670 ,5,1,0.,12.0,0.,12.0,0.,12.0,0.,12.0
1981-08-25 12:19:25.670 ,5,1,1.,12.0,0.,12.0,0.,12.0,0.,12.0
1981-08-25 12:19:37.670 ,5,0,0.,12.0,0.,12.0,0.,12.0,0.,12.0
1981-08-25 12:19:49.670 ,5,0,0.,12.0,0.,12.0,0.,12.0,0.,12.0
1981-08-25 12:20:01.670 ,4,1,0.,12.0,0.,12.0,0.,12.0,0.,12.0
1981-08-25 12:20:13.670 ,4,1,0.,12.0,0.,12.0,0.,12.0,0.,12.0
1981-08-25 12:20:25.670 ,4,0,0.,12.0,0.,12.0,0.,12.0,0.,12.0
1981-08-25 12:20:37.670 ,4,0,0.,12.0,0.,12.0,0.,12.0,0.,12.0
1981-08-25 12:20:49.670 ,3,1,0.,12.0,0.,12.0,0.,12.0,0.,12.0
1981-08-25 12:21:01.670 ,3,1,0.,12.0,0.,12.0,0.,12.0,0.,12.0
1981-08-25 12:21:13.670 ,3,0,1.,12.0,0.,12.0,0.,12.0,0.,12.0
1981-08-25 12:21:25.670 ,3,0,0.,12.0,0.,12.0,0.,12.0,0.,12.0
1981-08-25 12:21:37.670 ,2,1,0.,12.0,0.,12.0,0.,12.0,0.,12.0
1981-08-25 12:21:49.670 ,2,1,0.,12.0,0.,12.0,0.,12.0,0.,12.0
1981-08-25 12:22:01.670 ,2,0,0.,12.0,0.,12.0,0.,12.0,0.,12.0
1981-08-25 12:22:13.670 ,2,0,0.,12.0,0.,12.0,0.,12.0,0.,12.0
1981-08-25 12:22:25.670 ,1,1,0.,12.0,0.,12.0,0.,12.0,0.,12.0
1981-08-25 12:22:37.670 ,1,1,0.,12.0,0.,12.0,0.,12.0,0.,12.0
1981-08-25 12:22:49.670 ,1,0,0.,12.0,0.,12.0,0.,12.0,0.,12.0
1981-08-25 12:23:01.670 ,1,0,0.,12.0,0.,12.0,0.,12.0,0.,12.0
1981-08-25 12:23:13.670 ,0,1,0.,12.0,0.,12.0,0.,12.0,0.,12.0
1981-08-25 12:23:25.670 ,0,1,1.,12.0,0.,12.0,0.,12.0,0.,12.0
1981-08-25 12:23:37.670 ,0,0,0.,12.0,0.,12.0,0.,12.0,0.,12.0
1981-08-25 12:23:49.670 ,0,0,0.,12.0,0.,12.0,0.,12.0,0.,12.0
1981-08-25 12:24:01.670 ,0,1,0.,12.0,0.,12.0,0.,12.0,0.,12.0
1981-08-25 12:24:13.670 ,0,1,0.,12.0,0.,12.0,0.,12.0,0.,12.0
1981-08-25 12:24:25.670 ,0,0,0.,12.0,0.,12.0,0.,12.0,0.,12.0
1981-08-25 12:24:37.670 ,0,0,0.,12.0,0.,12.0,0.,12.0,0.,12.0
1981-08-25 12:24:49.670 ,1,1,0.,12.0,0.,12.0,0.,12.0,0.,12.0
1981-08-25 12:25:01.670 ,1,1,0.,12.0,0.,12.0,0.,12.0,0.,12.0
1981-08-25 12:25:13.670 ,1,0,0.,12.0,0.,12.0,0.,12.0,0.,12.0
1981-08-25 12:25:25.670 ,1,0,0.,12.0,0.,12.0,0.,12.0,0.,12.0
1981-08-25 12:25:37.670 ,2,1,0.,12.0,0.,12.0,0.,12.0,0.,12.0
1981-08-25 12:25:49.670 ,2,1,0.,12.0,0.,12.0,0.,12.0,0.,12.0
1981-08-25 12:26:01.670 ,2,0,0.,12.0,0.,12.0,0.,12.0,0.,12.0
1981-08-25 12:26:13.670 ,2,0,0.,12.0,0.,12.0,0.,12.0,0.,12.0
1981-08-25 12:26:25.670 ,3,1,0.,12.0,0.,12.0,0.,12.0,0.,12.0
1981-08-25 12:26:37.670 ,3,1,0.,12.0,0.,12.0,0.,12.0,0.,12.0
1981-08-25 12:26:49.670 ,3,0,0.,12.0,0.,12.0,0.,12.0,0.,12.0
1981-08-25 12:27:01.670 ,3,0,0.,12.0,0.,12.0,0.,12.0,0.,12.0
1981-08-25 12:27:13.670 ,4,1,0.,12.0,0.,12.0,0.,12.0,0.,12.0
1981-08-25 12:27:25.670 ,4,1,0.,12.0,0.,12.0,0.,12.0,0.,12.0
1981-08-25 12:27:37.670 ,4,0,0.,12.0,0.,12.0,0.,12.0,0.,12.0
1981-08-25 12:27:49.670 ,4,0,0.,12.0,0.,12.0,0.,12.0,0.,12.0
1981-08-25 12:28:01.670 ,5,1,0.,12.0,0.,12.0,0.,12.0,0.,12.0
1981-08-25 12:28:13.670 ,5,1,0.,12.0,0.,12.0,0.,12.0,0.,12.0
1981-08-25 12:28:25.670 ,5,0,1.,12.0,0.,12.0,0.,12.0,0.,12.0
1981-08-25 12:28:37.670 ,5,0,0.,12.0,0.,12.0,0.,12.0,0.,12.0
1981-08-25 12:28:49.670 ,6,1,0.,12.0,0.,12.0,0.,12.0,0.,12.0
1981-08-25 12:29:01.670 ,6,1,0.,12.0,0.,12.0,0.,12.0,0.,12.0
1981-08-25 12:29:13.670 ,6,0,1.,12.0,0.,12.0,0.,12.0,0.,12.0
1981-08-25 12:29:25.670 ,6,0,0.,12.0,0.,12.0,0.,12.0,0.,12.0
1981-08-25 12:29:37.670 ,7,1,0.,12.0,0.,12.0,0.,12.0,0.,12.0
1981-08-25 12:29:49.670 ,7,1,0.,12.0,0.,12.0,0.,12.0,0.,12.0
1981-08-25 12:30:01.670 ,7,0,0.,12.0,0.,12.0,0.,12.0,0.,12.0
1981-08-25 12:30:13.670 ,7,0,0.,12.0,0.,12.0,0.,12.0,0.,12.0
1981-08-25 12:30:25.670 ,7,1,0.,12.0,0.,12.0,0.,12.0,0.,12.0
1981-08-25 12:30:37.670 ,7,1,0.,12.0,0.,12.0,0.,12.0,0.,12.0
1981-08-25 12:30:49.670 ,7,0,0.,12.0,0.,12.0,0.,12.0,0.,12.0
1981-08-25 12:31:01.670 ,7,0,0.,12.0,0.,12.0,0.,12.0,0.,12.0
1981-08-25 12:31:13.670 ,6,1,0.,12.0,0.,12.0,0.,12.0,0.,12.0
1981-08-25 12:31:25.670 ,6,1,0.,12.0,0.,12.0,0.,12.0,0.,12.0
1981-08-25 12:31:37.670 ,6,0,0.,12.0,0.,12.0,0.,12.0,0.,12.0
1981-08-25 12:31:49.670 ,6,0,0.,12.0,0.,12.0,0.,12.0,0.,12.0
1981-08-25 12:32:01.670 ,5,1,0.,12.0,0.,12.0,0.,12.0,0.,12.0
1981-08-25 12:32:13.670 ,5,1,0.,12.0,0.,12.0,0.,12.0,0.,12.0
1981-08-25 12:32:25.670 ,5,0,0.,12.0,0.,12.0,0.,12.0,0.,12.0
1981-08-25 12:32:37.670 ,5,0,0.,12.0,0.,12.0,0.,12.0,0.,12.0
1981-08-25 12:32:49.670 ,4,1,0.,12.0,0.,12.0,0.,12.0,0.,12.0
1981-08-25 12:33:01.670 ,4,1,0.,12.0,0.,12.0,0.,12.0,0.,12.0
1981-08-25 12:33:13.670 ,4,0,0.,12.0,0.,12.0,0.,12.0,0.,12.0
1981-08-25 12:33:25.670 ,4,0,0.,12.0,0.,12.0,0.,12.0,0.,12.0
1981-08-25 12:33:37.670 ,3,1,0.,12.0,0.,12.0,0.,12.0,0.,12.0
1981-08-25 12:33:49.670 ,3,1,0.,12.0,0.,12.0,0.,12.0,0.,12.0
1981-08-25 12:34:01.670 ,3,0,0.,12.0,0.,12.0,0.,12.0,0.,12.0
1981-08-25 12:34:13.670 ,3,0,0.,12.0,0.,12.0,0.,12.0,0.,12.0
1981-08-25 12:34:25.670 ,2,1,0.,12.0,0.,12.0,0.,12.0,0.,12.0
1981-08-25 12:34:37.670 ,2,1,0.,12.0,0.,12.0,0.,12.0,0.,12.0
1981-08-25 12:34:49.670 ,2,0,0.,12.0,0.,12.0,0.,12.0,0.,12.0
1981-08-25 12:35:01.670 ,2,0,0.,12.0,0.,12.0,0.,12.0,0.,12.0
1981-08-25 12:35:13.670 ,1,1,0.,12.0,0.,12.0,0.,12.0,0.,12.0
1981-08-25 12:35:25.670 ,1,1,0.,12.0,0.,12.0,0.,12.0,0.,12.0
1981-08-25 12:35:37.670 ,1,0,0.,12.0,0.,12.0,0.,12.0,0.,12.0
1981-08-25 12:35:49.670 ,1,0,0.,12.0,0.,12.0,0.,12.0,0.,12.0
1981-08-25 12:36:01.670 ,0,1,1.,12.0,0.,12.0,0.,12.0,0.,12.0
1981-08-25 12:36:13.670 ,0,1,0.,12.0,0.,12.0,0.,12.0,0.,12.0
1981-08-25 12:36:25.670 ,0,0,0.,12.0,0.,12.0,0.,12.0,0.,12.0
1981-08-25 12:36:37.670 ,0,0,1.,12.0,0.,12.0,0.,12.0,0.,12.0
1981-08-25 12:36:49.670 ,0,1,0.,12.0,0.,12.0,0.,12.0,0.,12.0
1981-08-25 12:37:01.670 ,0,1,0.,12.0,0.,12.0,0.,12.0,0.,12.0
1981-08-25 12:37:13.670 ,0,0,0.,12.0,0.,12.0,0.,12.0,0.,12.0
1981-08-25 12:37:25.670 ,0,0,0.,12.0,0.,12.0,0.,12.0,0.,12.0
1981-08-25 12:37:37.670 ,1,1,0.,12.0,0.,12.0,0.,12.0,0.,12.0
1981-08-25 12:37:49.670 ,1,1,0.,12.0,0.,12.0,0.,12.0,0.,12.0
1981-08-25 12:38:01.670 ,1,0,0.,12.0,0.,12.0,0.,12.0,0.,12.0
1981-08-25 12:38:13.670 ,1,0,1.,12.0,0.,12.0,0.,12.0,0.,12.0
1981-08-25 12:38:25.670 ,2,1,0.,12.0,0.,12.0,0.,12.0,0.,12.0
1981-08-25 12:38:37.670 ,2,1,0.,12.0,0.,12.0,0.,12.0,0.,12.0
1981-08-25 12:38:49.670 ,2,0,1.,12.0,0.,12.0,0.,12.0,0.,12.0
1981-08-25 12:39:01.670 ,2,0,0.,12.0,0.,12.0,0.,12.0,0.,12.0
1981-08-25 12:39:13.670 ,3,1,0.,12.0,0.,12.0,0.,12.0,0.,12.0
1981-08-25 12:39:25.670 ,3,1,0.,12.0,0.,12.0,0.,12.0,0.,12.0
1981-08-25 12:39:37.670 ,3,0,0.,12.0,0.,12.0,0.,12.0,0.,12.0
1981-08-25 12:39:49.670 ,3,0,0.,12.0,0.,12.0,0.,12.0,0.,12.0
1981-08-25 12:40:01.670 ,4,1,0.,12.0,0.,12.0,0.,12.0,0.,12.0
1981-08-25 12:40:13.670 ,4,1,0.,12.0,0.,12.0,0.,12.0,0.,12.0
1981-08-25 12:40:25.670 ,4,0,2.,12.0,0.,12.0,0.,12.0,0.,12.0
1981-08-25 12:40:37.670 ,4,0,1.,12.0,0.,12.0,0.,12.0,0.,12.0
1981-08-25 12:40:49.670 ,5,1,1.,12.0,0.,12.0,0.,12.0,0.,12.0
1981-08-25 12:41:01.670 ,5,1,0.,12.0,0.,12.0,0.,12.0,0.,12.0
1981-08-25 12:41:13.670 ,5,0,0.,12.0,0.,12.0,0.,12.0,0.,12.0
1981-08-25 12:41:25.670 ,5,0,1.,12.0,0.,12.0,0.,12.0,0.,12.0
1981-08-25 12:41:37.670 ,6,1,0.,12.0,0.,12.0,0.,12.0,0.,12.0
1981-08-25 12:41:49.670 ,6,1,0.,12.0,0.,12.0,0.,12.0,0.,12.0
1981-08-25 12:42:01.670 ,6,0,0.,12.0,0.,12.0,0.,12.0,0.,12.0
1981-08-25 12:42:13.670 ,6,0,1.,12.0,0.,12.0,0.,12.0,0.,12.0
1981-08-25 12:42:25.670 ,7,1,0.,12.0,0.,12.0,0.,12.0,0.,12.0
1981-08-25 12:42:37.670 ,7,1,0.,12.0,0.,12.0,0.,12.0,0.,12.0
1981-08-25 12:42:49.670 ,7,0,0.,12.0,0.,12.0,0.,12.0,0.,12.0
1981-08-25 12:43:01.670 ,7,0,0.,12.0,0.,12.0,0.,12.0,0.,12.0
1981-08-25 12:43:13.670 ,7,1,0.,12.0,0.,12.0,0.,12.0,0.,12.0
1981-08-25 12:43:25.670 ,7,1,0.,12.0,0.,12.0,0.,12.0,0.,12.0
1981-08-25 12:43:37.670 ,7,0,0.,12.0,0.,12.0,0.,12.0,0.,12.0
1981-08-25 12:43:49.670 ,7,0,0.,12.0,0.,12.0,0.,12.0,0.,12.0
1981-08-25 12:44:01.670 ,6,1,0.,12.0,0.,12.0,0.,12.0,0.,12.0
1981-08-25 12:44:13.670 ,6,1,0.,12.0,0.,12.0,0.,12.0,0.,12.0
1981-08-25 12:44:25.670 ,6,0,1.,12.0,0.,12.0,0.,12.0,0.,12.0
1981-08-25 12:44:37.670 ,6,0,1.,12.0,0.,12.0,0.,12.0,0.,12.0
1981-08-25 12:44:49.670 ,5,1,0.,12.0,0.,12.0,0.,12.0,0.,12.0
1981-08-25 12:45:01.670 ,5,1,0.,12.0,0.,12.0,0.,12.0,0.,12.0
1981-08-25 12:45:13.670 ,5,0,0.,12.0,0.,12.0,0.,12.0,0.,12.0
1981-08-25 12:45:25.670 ,5,0,0.,12.0,0.,12.0,0.,12.0,0.,12.0
1981-08-25 12:45:37.670 ,4,1,0.,12.0,0.,12.0,0.,12.0,0.,12.0
1981-08-25 12:45:49.670 ,4,1,0.,12.0,0.,12.0,0.,12.0,0.,12.0
1981-08-25 12:46:01.670 ,4,0,0.,12.0,0.,12.0,0.,12.0,0.,12.0
1981-08-25 12:46:13.670 ,4,0,0.,12.0,0.,12.0,0.,12.0,0.,12.0
1981-08-25 12:46:25.670 ,3,1,0.,12.0,0.,12.0,0.,12.0,0.,12.0
1981-08-25 12:46:37.670 ,3,1,0.,12.0,0.,12.0,0.,12.0,0.,12.0
1981-08-25 12:46:49.670 ,3,0,0.,12.0,0.,12.0,0.,12.0,0.,12.0
1981-08-25 12:47:01.670 ,3,0,0.,12.0,0.,12.0,0.,12.0,0.,12.0
1981-08-25 12:47:13.670 ,2,1,0.,12.0,0.,12.0,0.,12.0,0.,12.0
1981-08-25 12:47:25.670 ,2,1,0.,12.0,0.,12.0,0.,12.0,0.,12.0
1981-08-25 12:47:37.670 ,2,0,0.,12.0,0.,12.0,0.,12.0,0.,12.0
1981-08-25 12:47:49.670 ,2,0,1.,12.0,0.,12.0,0.,12.0,0.,12.0
1981-08-25 12:48:01.670 ,1,1,0.,12.0,0.,12.0,0.,12.0,0.,12.0
1981-08-25 12:48:13.670 ,1,1,0.,12.0,0.,12.0,0.,12.0,0.,12.0
1981-08-25 12:48:25.670 ,1,0,0.,12.0,0.,12.0,0.,12.0,0.,12.0
1981-08-25 12:48:37.670 ,1,0,0.,12.0,0.,12.0,0.,12.0,0.,12.0
1981-08-25 12:48:49.670 ,0,1,0.,12.0,0.,12.0,0.,12.0,0.,12.0
1981-08-25 12:49:01.670 ,0,1,0.,12.0,0.,12.0,0.,12.0,0.,12.0
1981-08-25 12:49:13.670 ,0,0,0.,12.0,0.,12.0,0.,12.0,0.,12.0
1981-08-25 12:49:25.670 ,0,0,0.,12.0,0.,12.0,0.,12.0,0.,12.0
1981-08-25 12:49:37.670 ,0,1,1.,12.0,0.,12.0,0.,12.0,0.,12.0
1981-08-25 12:49:49.670 ,0,1,0.,12.0,0.,12.0,0.,12.0,0.,12.0
1981-08-25 12:50:01.670 ,0,0,0.,12.0,0.,12.0,0.,12.0,0.,12.0
1981-08-25 12:50:13.670 ,0,0,0.,12.0,0.,12.0,0.,12.0,0.,12.0
1981-08-25 12:50:25.670 ,1,1,0.,12.0,0.,12.0,0.,12.0,0.,12.0
1981-08-25 12:50:37.670 ,1,1,1.,12.0,0.,12.0,0.,12.0,0.,12.0
1981-08-25 12:50:49.670 ,1,0,0.,12.0,0.,12.0,0.,12.0,0.,12.0
1981-08-25 12:51:01.670 ,1,0,0.,12.0,0.,12.0,0.,12.0,0.,12.0
1981-08-25 12:51:13.670 ,2,1,0.,12.0,0.,12.0,0.,12.0,0.,12.0
1981-08-25 12:51:25.670 ,2,1,0.,12.0,0.,12.0,0.,12.0,0.,12.0
1981-08-25 12:51:37.670 ,2,0,0.,12.0,0.,12.0,0.,12.0,0.,12.0
1981-08-25 12:51:49.670 ,2,0,0.,12.0,0.,12.0,0.,12.0,0.,12.0
1981-08-25 12:52:01.670 ,3,1,0.,12.0,0.,12.0,0.,12.0,0.,12.0
1981-08-25 12:52:13.670 ,3,1,1.,12.0,0.,12.0,0.,12.0,0.,12.0
1981-08-25 12:52:25.670 ,3,0,0.,12.0,0.,12.0,0.,12.0,0.,12.0
1981-08-25 12:52:37.670 ,3,0,0.,12.0,0.,12.0,0.,12.0,0.,12.0
1981-08-25 12:52:49.670 ,4,1,0.,12.0,0.,12.0,0.,12.0,0.,12.0
1981-08-25 12:53:01.670 ,4,1,0.,12.0,0.,12.0,0.,12.0,0.,12.0
1981-08-25 12:53:13.670 ,4,0,0.,12.0,0.,12.0,0.,12.0,0.,12.0
1981-08-25 12:53:25.670 ,4,0,0.,12.0,0.,12.0,0.,12.0,0.,12.0
1981-08-25 12:53:37.660 ,5,1,0.,12.0,0.,12.0,0.,12.0,0.,12.0
1981-08-25 12:53:49.660 ,5,1,0.,12.0,0.,12.0,0.,12.0,0.,12.0
1981-08-25 12:54:01.660 ,5,0,1.,12.0,0.,12.0,0.,12.0,0.,12.0
1981-08-25 12:54:13.660 ,5,0,0.,12.0,0.,12.0,0.,12.0,0.,12.0
1981-08-25 12:54:25.660 ,6,1,0.,12.0,0.,12.0,0.,12.0,0.,12.0
1981-08-25 12:54:37.660 ,6,1,0.,12.0,0.,12.0,0.,12.0,0.,12.0
1981-08-25 12:54:49.660 ,6,0,1.,12.0,0.,12.0,0.,12.0,0.,12.0
1981-08-25 12:55:01.660 ,6,0,0.,12.0,0.,12.0,0.,12.0,0.,12.0
1981-08-25 12:55:13.660 ,7,1,1.,12.0,0.,12.0,0.,12.0,0.,12.0
1981-08-25 12:55:25.660 ,7,1,0.,12.0,0.,12.0,0.,12.0,0.,12.0
1981-08-25 12:55:37.660 ,7,0,0.,12.0,0.,12.0,0.,12.0,0.,12.0
1981-08-25 12:55:49.660 ,7,0,0.,12.0,0.,12.0,0.,12.0,0.,12.0
1981-08-25 12:56:01.660 ,7,1,0.,12.0,0.,12.0,0.,12.0,0.,12.0
1981-08-25 12:56:13.660 ,7,1,0.,12.0,0.,12.0,0.,12.0,0.,12.0
1981-08-25 12:56:25.660 ,7,0,0.,12.0,0.,12.0,0.,12.0,0.,12.0
1981-08-25 12:56:37.660 ,7,0,0.,12.0,0.,12.0,0.,12.0,0.,12.0
1981-08-25 12:56:49.660 ,6,1,0.,12.0,0.,12.0,0.,12.0,0.,12.0
1981-08-25 12:57:01.660 ,6,1,0.,12.0,0.,12.0,0.,12.0,0.,12.0
1981-08-25 12:57:13.660 ,6,0,0.,12.0,0.,12.0,0.,12.0,0.,12.0
1981-08-25 12:57:25.660 ,6,0,0.,12.0,0.,12.0,0.,12.0,0.,12.0
1981-08-25 12:57:37.660 ,5,1,0.,12.0,0.,12.0,0.,12.0,0.,12.0
1981-08-25 12:57:49.660 ,5,1,0.,12.0,0.,12.0,0.,12.0,0.,12.0
1981-08-25 12:58:01.660 ,5,0,0.,12.0,0.,12.0,0.,12.0,0.,12.0
1981-08-25 12:58:13.660 ,5,0,1.,12.0,1.,12.0,0.,12.0,0.,12.0
1981-08-25 12:58:25.660 ,4,1,1.,12.0,0.,12.0,0.,12.0,0.,12.0
1981-08-25 12:58:37.660 ,4,1,0.,12.0,0.,12.0,0.,12.0,0.,12.0
1981-08-25 12:58:49.660 ,4,0,0.,12.0,0.,12.0,0.,12.0,0.,12.0
1981-08-25 12:59:01.660 ,4,0,1.,12.0,0.,12.0,0.,12.0,0.,12.0
1981-08-25 12:59:13.660 ,3,1,0.,12.0,0.,12.0,0.,12.0,0.,12.0
1981-08-25 12:59:25.660 ,3,1,0.,12.0,0.,12.0,0.,12.0,0.,12.0
1981-08-25 12:59:37.660 ,3,0,0.,12.0,0.,12.0,0.,12.0,0.,12.0
1981-08-25 12:59:49.660 ,3,0,0.,12.0,0.,12.0,0.,12.0,0.,12.0
1981-08-25 13:00:01.660 ,2,1,0.,12.0,0.,12.0,0.,12.0,0.,12.0
1981-08-25 13:00:13.660 ,2,1,0.,12.0,0.,12.0,0.,12.0,0.,12.0
1981-08-25 13:00:25.660 ,2,0,0.,12.0,0.,12.0,0.,12.0,0.,12.0
1981-08-25 13:00:37.660 ,2,0,0.,12.0,0.,12.0,0.,12.0,0.,12.0
1981-08-25 13:00:49.660 ,1,1,0.,12.0,0.,12.0,0.,12.0,0.,12.0
1981-08-25 13:01:01.660 ,1,1,0.,12.0,0.,12.0,0.,12.0,0.,12.0
1981-08-25 13:01:13.660 ,1,0,0.,12.0,0.,12.0,0.,12.0,0.,12.0
1981-08-25 13:01:25.660 ,1,0,0.,12.0,0.,12.0,0.,12.0,0.,12.0
1981-08-25 13:01:37.660 ,0,1,0.,12.0,0.,12.0,0.,12.0,0.,12.0
1981-08-25 13:01:49.660 ,0,1,0.,12.0,0.,12.0,0.,12.0,0.,12.0
1981-08-25 13:02:01.660 ,0,0,0.,12.0,0.,12.0,0.,12.0,0.,12.0
1981-08-25 13:02:13.660 ,0,0,0.,12.0,0.,12.0,0.,12.0,0.,12.0
1981-08-25 13:02:25.660 ,0,1,0.,12.0,0.,12.0,0.,12.0,0.,12.0
1981-08-25 13:02:37.660 ,0,1,1.,12.0,0.,12.0,0.,12.0,0.,12.0
1981-08-25 13:02:49.660 ,0,0,2.,12.0,0.,12.0,0.,12.0,0.,12.0
1981-08-25 13:03:01.660 ,0,0,0.,12.0,0.,12.0,0.,12.0,0.,12.0
1981-08-25 13:03:13.660 ,1,1,0.,12.0,0.,12.0,0.,12.0,0.,12.0
1981-08-25 13:03:25.660 ,1,1,0.,12.0,0.,12.0,0.,12.0,0.,12.0
1981-08-25 13:03:37.660 ,1,0,0.,12.0,0.,12.0,0.,12.0,0.,12.0
1981-08-25 13:03:49.660 ,1,0,0.,12.0,0.,12.0,0.,12.0,0.,12.0
1981-08-25 13:04:01.660 ,2,1,0.,12.0,0.,12.0,0.,12.0,0.,12.0
1981-08-25 13:04:13.660 ,2,1,1.,12.0,0.,12.0,0.,12.0,0.,12.0
1981-08-25 13:04:25.660 ,2,0,0.,12.0,0.,12.0,0.,12.0,0.,12.0
1981-08-25 13:04:37.660 ,2,0,0.,12.0,0.,12.0,0.,12.0,0.,12.0
1981-08-25 13:04:49.660 ,3,1,0.,12.0,0.,12.0,0.,12.0,0.,12.0
1981-08-25 13:05:01.660 ,3,1,0.,12.0,0.,12.0,0.,12.0,0.,12.0
1981-08-25 13:05:13.660 ,3,0,0.,12.0,0.,12.0,0.,12.0,0.,12.0
1981-08-25 13:05:25.660 ,3,0,0.,12.0,0.,12.0,0.,12.0,0.,12.0
1981-08-25 13:05:37.660 ,4,1,1.,12.0,0.,12.0,0.,12.0,0.,12.0
1981-08-25 13:05:49.660 ,4,1,0.,12.0,0.,12.0,0.,12.0,0.,12.0
1981-08-25 13:06:01.660 ,4,0,1.,12.0,0.,12.0,0.,12.0,0.,12.0
1981-08-25 13:06:13.660 ,4,0,0.,12.0,0.,12.0,0.,12.0,0.,12.0
1981-08-25 13:06:25.660 ,5,1,0.,12.0,0.,12.0,0.,12.0,0.,12.0
1981-08-25 13:06:37.660 ,5,1,0.,12.0,0.,12.0,0.,12.0,0.,12.0
1981-08-25 13:06:49.660 ,5,0,0.,12.0,0.,12.0,0.,12.0,0.,12.0
1981-08-25 13:07:01.660 ,5,0,0.,12.0,0.,12.0,0.,12.0,0.,12.0
1981-08-25 13:07:13.660 ,6,1,0.,12.0,0.,12.0,0.,12.0,0.,12.0
1981-08-25 13:07:25.660 ,6,1,0.,12.0,0.,12.0,0.,12.0,0.,12.0
1981-08-25 13:07:37.660 ,6,0,0.,12.0,0.,12.0,0.,12.0,0.,12.0
1981-08-25 13:07:49.660 ,6,0,0.,12.0,0.,12.0,0.,12.0,0.,12.0
1981-08-25 13:08:01.660 ,7,1,0.,12.0,0.,12.0,0.,12.0,0.,12.0
1981-08-25 13:08:13.660 ,7,1,0.,12.0,0.,12.0,0.,12.0,0.,12.0
1981-08-25 13:08:25.660 ,7,0,0.,12.0,0.,12.0,0.,12.0,0.,12.0
1981-08-25 13:08:37.660 ,7,0,0.,12.0,0.,12.0,0.,12.0,0.,12.0
1981-08-25 13:08:49.660 ,7,1,0.,12.0,0.,12.0,0.,12.0,0.,12.0
1981-08-25 13:09:01.660 ,7,1,0.,12.0,0.,12.0,0.,12.0,0.,12.0
1981-08-25 13:09:13.660 ,7,0,0.,12.0,0.,12.0,0.,12.0,0.,12.0
1981-08-25 13:09:25.660 ,7,0,0.,12.0,0.,12.0,0.,12.0,0.,12.0
1981-08-25 13:09:37.660 ,6,1,0.,12.0,0.,12.0,0.,12.0,0.,12.0
1981-08-25 13:09:49.660 ,6,1,0.,12.0,0.,12.0,0.,12.0,0.,12.0
1981-08-25 13:10:01.660 ,6,0,0.,12.0,0.,12.0,0.,12.0,0.,12.0
1981-08-25 13:10:13.660 ,6,0,0.,12.0,0.,12.0,0.,12.0,0.,12.0
1981-08-25 13:10:25.660 ,5,1,0.,12.0,0.,12.0,0.,12.0,0.,12.0
1981-08-25 13:10:37.660 ,5,1,0.,12.0,0.,12.0,0.,12.0,0.,12.0
1981-08-25 13:10:49.660 ,5,0,0.,12.0,0.,12.0,0.,12.0,0.,12.0
1981-08-25 13:11:01.660 ,5,0,0.,12.0,0.,12.0,0.,12.0,0.,12.0
1981-08-25 13:11:13.660 ,4,1,0.,12.0,0.,12.0,0.,12.0,0.,12.0
1981-08-25 13:11:25.660 ,4,1,1.,12.0,0.,12.0,0.,12.0,0.,12.0
1981-08-25 13:11:37.660 ,4,0,0.,12.0,0.,12.0,0.,12.0,0.,12.0
1981-08-25 13:11:49.660 ,4,0,0.,12.0,0.,12.0,0.,12.0,0.,12.0
1981-08-25 13:12:01.660 ,3,1,0.,12.0,0.,12.0,0.,12.0,0.,12.0
1981-08-25 13:12:13.660 ,3,1,0.,12.0,0.,12.0,0.,12.0,0.,12.0
1981-08-25 13:12:25.660 ,3,0,0.,12.0,0.,12.0,0.,12.0,0.,12.0
1981-08-25 13:12:37.660 ,3,0,0.,12.0,0.,12.0,0.,12.0,0.,12.0
1981-08-25 13:12:49.660 ,2,1,0.,12.0,0.,12.0,0.,12.0,0.,12.0
1981-08-25 13:13:01.660 ,2,1,0.,12.0,0.,12.0,0.,12.0,0.,12.0
1981-08-25 13:13:13.660 ,2,0,0.,12.0,0.,12.0,0.,12.0,0.,12.0
1981-08-25 13:13:25.660 ,2,0,0.,12.0,0.,12.0,0.,12.0,0.,12.0
1981-08-25 13:13:37.660 ,1,1,0.,12.0,0.,12.0,0.,12.0,0.,12.0
1981-08-25 13:13:49.660 ,1,1,0.,12.0,0.,12.0,0.,12.0,0.,12.0
1981-08-25 13:14:01.660 ,1,0,0.,12.0,0.,12.0,0.,12.0,0.,12.0
1981-08-25 13:14:13.660 ,1,0,0.,12.0,0.,12.0,0.,12.0,0.,12.0
1981-08-25 13:14:25.660 ,0,1,0.,12.0,0.,12.0,0.,12.0,0.,12.0
1981-08-25 13:14:37.660 ,0,1,0.,12.0,0.,12.0,0.,12.0,0.,12.0
1981-08-25 13:14:49.660 ,0,0,0.,12.0,0.,12.0,0.,12.0,0.,12.0
1981-08-25 13:15:01.660 ,0,0,0.,12.0,0.,12.0,0.,12.0,0.,12.0
1981-08-25 13:15:13.660 ,0,1,0.,12.0,0.,12.0,0.,12.0,0.,12.0
1981-08-25 13:15:25.660 ,0,1,0.,12.0,0.,12.0,0.,12.0,0.,12.0
1981-08-25 13:15:37.660 ,0,0,0.,12.0,0.,12.0,0.,12.0,0.,12.0
1981-08-25 13:15:49.660 ,0,0,0.,12.0,0.,12.0,0.,12.0,0.,12.0
1981-08-25 13:16:01.660 ,1,1,0.,12.0,0.,12.0,0.,12.0,0.,12.0
1981-08-25 13:16:13.660 ,1,1,0.,12.0,0.,12.0,0.,12.0,0.,12.0
1981-08-25 13:16:25.660 ,1,0,0.,12.0,0.,12.0,0.,12.0,0.,12.0
1981-08-25 13:16:37.660 ,1,0,0.,12.0,0.,12.0,0.,12.0,0.,12.0
1981-08-25 13:16:49.660 ,2,1,0.,12.0,0.,12.0,0.,12.0,0.,12.0
1981-08-25 13:17:01.660 ,2,1,0.,12.0,0.,12.0,0.,12.0,0.,12.0
1981-08-25 13:17:13.660 ,2,0,0.,12.0,0.,12.0,0.,12.0,0.,12.0
1981-08-25 13:17:25.660 ,2,0,0.,12.0,0.,12.0,0.,12.0,0.,12.0